,,,PA_Meas_PMT16A,,PR_Meas_QMR101_102,,RH_Meas_QMH101,,SR_Meas_QMS101,,TA_Meas_QMH101,,GenWind,,GenWind,
date,time,status,PA,status,PR,status,RH,status,SR,status,TA,status,DirAvg,status,SpdAvg,
2012-06-23, 00:00:04,VALID,1002.77,VALID,0,VALID,94.4394,VALID,0,VALID,21.731,VALID,51,VALID,0.299609,
2012-06-23, 00:01:04,VALID,1002.73,VALID,0,VALID,94.5768,VALID,0,VALID,21.7488,VALID,51,VALID,0.599609,
2012-06-23, 00:02:04,VALID,1002.72,VALID,0,VALID,94.6607,VALID,0,VALID,21.7505,VALID,50,VALID,0.766797,
2012-06-23, 00:03:04,VALID,1002.66,VALID,0,VALID,94.7599,VALID,0,VALID,21.7683,VALID,42,VALID,0.823828,
2012-06-23, 00:04:04,VALID,1002.64,VALID,0,VALID,94.7828,VALID,0,VALID,21.7911,VALID,42,VALID,0.283984,
2012-06-23, 00:05:04,VALID,1002.65,VALID,0,VALID,94.7599,VALID,0,VALID,21.731,VALID,42,VALID,0.000390625,
2012-06-23, 00:06:04,VALID,1002.63,VALID,0,VALID,94.7904,VALID,0,VALID,21.7716,VALID,42,VALID,0.762109,
2012-06-23, 00:07:04,VALID,1002.66,VALID,0,VALID,94.7446,VALID,0,VALID,21.7326,VALID,42,VALID,0.84375,
2012-06-23, 00:08:04,VALID,1002.66,VALID,0,VALID,94.7141,VALID,0,VALID,21.6725,VALID,18,VALID,1.08281,
2012-06-23, 00:09:04,VALID,1002.68,VALID,0,VALID,94.7217,VALID,0,VALID,21.653,VALID,16,VALID,0.897656,
2012-06-23, 00:10:04,VALID,1002.69,VALID,0,VALID,94.8133,VALID,0,VALID,21.6546,VALID,16,VALID,1.18594,
2012-06-23, 00:11:04,VALID,1002.68,VALID,0,VALID,94.9583,VALID,0,VALID,21.653,VALID,357,VALID,1.06172,
2012-06-23, 00:12:04,VALID,1002.67,VALID,0,VALID,95.0574,VALID,0,VALID,21.6936,VALID,329,VALID,0.795703,
2012-06-23, 00:13:04,VALID,1002.67,VALID,0,VALID,95.1185,VALID,0,VALID,21.7131,VALID,335,VALID,1.10742,
2012-06-23, 00:14:04,VALID,1002.67,VALID,0,VALID,95.1261,VALID,0,VALID,21.692,VALID,338,VALID,1.11953,
2012-06-23, 00:15:04,VALID,1002.69,VALID,0,VALID,95.1719,VALID,0,VALID,21.7326,VALID,320,VALID,0.591016,
2012-06-23, 00:16:04,VALID,1002.66,VALID,0,VALID,95.1948,VALID,0,VALID,21.7521,VALID,328,VALID,0.716406,
2012-06-23, 00:17:04,VALID,1002.62,VALID,0,VALID,95.2177,VALID,0,VALID,21.7716,VALID,357,VALID,1.08359,
2012-06-23, 00:18:04,VALID,1002.62,VALID,0,VALID,95.1871,VALID,0,VALID,21.7521,VALID,360,VALID,1.06367,
2012-06-23, 00:19:04,VALID,1002.59,VALID,0,VALID,95.1566,VALID,0,VALID,21.7505,VALID,360,VALID,0.976172,
2012-06-23, 00:20:04,VALID,1002.6,VALID,0,VALID,95.1108,VALID,0,VALID,21.7521,VALID,360,VALID,0.987891,
2012-06-23, 00:21:04,VALID,1002.53,VALID,0,VALID,95.0956,VALID,0,VALID,21.7895,VALID,5,VALID,1.36875,
2012-06-23, 00:22:04,VALID,1002.57,VALID,0,VALID,94.9964,VALID,0,VALID,21.7895,VALID,10,VALID,1.05195,
2012-06-23, 00:23:04,VALID,1002.51,VALID,0,VALID,94.8972,VALID,0,VALID,21.7895,VALID,10,VALID,0.752344,
2012-06-23, 00:24:04,VALID,1002.54,VALID,0,VALID,94.8209,VALID,0,VALID,21.8106,VALID,10,VALID,0.648828,
2012-06-23, 00:25:04,VALID,1002.55,VALID,0,VALID,94.8057,VALID,0,VALID,21.809,VALID,10,VALID,0.05625,
2012-06-23, 00:26:04,VALID,1002.56,VALID,0,VALID,94.7599,VALID,0,VALID,21.8496,VALID,10,VALID,0,
2012-06-23, 00:27:04,VALID,1002.51,VALID,0,VALID,94.7446,VALID,0,VALID,21.8301,VALID,10,VALID,0.0289063,
2012-06-23, 00:28:04,VALID,1002.5,VALID,0,VALID,94.7065,VALID,0,VALID,21.8496,VALID,10,VALID,0.512109,
2012-06-23, 00:29:04,VALID,1002.52,VALID,0,VALID,94.6378,VALID,0,VALID,21.8692,VALID,10,VALID,0.525391,
2012-06-23, 00:30:04,VALID,1002.51,VALID,0,VALID,94.5157,VALID,0,VALID,21.8301,VALID,10,VALID,0.791406,
2012-06-23, 00:31:04,VALID,1002.5,VALID,0,VALID,94.3479,VALID,0,VALID,21.8106,VALID,20,VALID,0.901953,
2012-06-23, 00:32:04,VALID,1002.51,VALID,0,VALID,94.2945,VALID,0,VALID,21.8106,VALID,28,VALID,0.533594,
2012-06-23, 00:33:04,VALID,1002.47,VALID,0,VALID,94.2105,VALID,0,VALID,21.8106,VALID,28,VALID,0.549609,
2012-06-23, 00:34:04,VALID,1002.44,VALID,0,VALID,94.0961,VALID,0,VALID,21.77,VALID,28,VALID,0.73125,
2012-06-23, 00:35:04,VALID,1002.41,VALID,0,VALID,94.119,VALID,0,VALID,21.7911,VALID,43,VALID,0.751562,
2012-06-23, 00:36:04,VALID,1002.39,VALID,0,VALID,94.0198,VALID,0,VALID,21.8301,VALID,48,VALID,0.623828,
2012-06-23, 00:37:04,VALID,1002.38,VALID,0,VALID,93.9054,VALID,0,VALID,21.8496,VALID,48,VALID,0.413672,
2012-06-23, 00:38:04,VALID,1002.4,VALID,0,VALID,93.7146,VALID,0,VALID,21.8887,VALID,48,VALID,0.144922,
2012-06-23, 00:39:04,VALID,1002.39,VALID,0,VALID,93.4781,VALID,0,VALID,21.8675,VALID,48,VALID,0.0523437,
2012-06-23, 00:40:04,VALID,1002.37,VALID,0,VALID,93.4323,VALID,0,VALID,21.887,VALID,48,VALID,0.203125,
2012-06-23, 00:41:04,VALID,1002.35,VALID,0,VALID,93.2874,VALID,0,VALID,21.9065,VALID,48,VALID,0.314844,
2012-06-23, 00:42:04,VALID,1002.36,VALID,0,VALID,93.2034,VALID,0,VALID,21.9472,VALID,48,VALID,0.297656,
2012-06-23, 00:43:04,VALID,1002.29,VALID,0,VALID,93.234,VALID,0,VALID,21.965,VALID,48,VALID,0.0488281,
2012-06-23, 00:44:04,VALID,1002.29,VALID,0,VALID,93.1729,VALID,0,VALID,22.0057,VALID,48,VALID,0.421094,
2012-06-23, 00:45:04,VALID,1002.29,VALID,0,VALID,93.1805,VALID,0,VALID,22.0057,VALID,47,VALID,0.41875,
2012-06-23, 00:46:04,VALID,1002.25,VALID,0,VALID,93.2492,VALID,0,VALID,21.965,VALID,312,VALID,0.714453,
2012-06-23, 00:47:04,VALID,1002.23,VALID,0,VALID,93.4094,VALID,0,VALID,21.965,VALID,312,VALID,0.633984,
2012-06-23, 00:48:04,VALID,1002.25,VALID,0,VALID,93.5391,VALID,0,VALID,21.9862,VALID,312,VALID,0.449609,
2012-06-23, 00:49:04,VALID,1002.2,VALID,0,VALID,93.562,VALID,0,VALID,22.004,VALID,312,VALID,0.322266,
2012-06-23, 00:50:04,VALID,1002.2,VALID,0,VALID,93.5544,VALID,0.104696,VALID,21.9845,VALID,312,VALID,0.468359,
2012-06-23, 00:51:04,VALID,1002.19,VALID,0,VALID,93.4705,VALID,0.104696,VALID,21.965,VALID,312,VALID,0.382031,
2012-06-23, 00:52:04,VALID,1002.17,VALID,0,VALID,93.3255,VALID,0,VALID,21.926,VALID,312,VALID,0.371094,
2012-06-23, 00:53:04,VALID,1002.19,VALID,0,VALID,93.3942,VALID,0,VALID,21.887,VALID,312,VALID,0.451562,
2012-06-23, 00:54:04,VALID,1002.17,VALID,0,VALID,93.7223,VALID,0,VALID,21.887,VALID,312,VALID,0.315234,
2012-06-23, 00:55:04,VALID,1002.17,VALID,0,VALID,93.7833,VALID,0,VALID,21.887,VALID,312,VALID,0.308594,
2012-06-23, 00:56:04,VALID,1002.13,VALID,0,VALID,93.7451,VALID,0,VALID,21.887,VALID,312,VALID,0.309766,
2012-06-23, 00:57:04,VALID,1002.12,VALID,0,VALID,93.707,VALID,0,VALID,21.848,VALID,312,VALID,0.628125,
2012-06-23, 00:58:04,VALID,1002.08,VALID,0,VALID,93.852,VALID,0,VALID,21.848,VALID,312,VALID,0.623828,
2012-06-23, 00:59:04,VALID,1002.1,VALID,0,VALID,93.9435,VALID,0,VALID,21.8675,VALID,36,VALID,0.820703,
2012-06-23, 01:00:04,VALID,1002.11,VALID,0,VALID,93.852,VALID,0,VALID,21.9065,VALID,39,VALID,0.713281,
2012-06-23, 01:01:04,VALID,1002.05,VALID,0,VALID,93.4018,VALID,0,VALID,21.9845,VALID,39,VALID,0.735547,
2012-06-23, 01:02:04,VALID,1002.05,VALID,0,VALID,93.028,VALID,0,VALID,22.0235,VALID,39,VALID,0.588281,
2012-06-23, 01:03:04,VALID,1002.06,VALID,0,VALID,92.677,VALID,0,VALID,22.043,VALID,39,VALID,0.642578,
2012-06-23, 01:04:04,VALID,1002.06,VALID,0,VALID,92.3642,VALID,0,VALID,22.082,VALID,42,VALID,0.723828,
2012-06-23, 01:05:04,VALID,1002.05,VALID,0,VALID,92.2803,VALID,0,VALID,22.1015,VALID,42,VALID,0.407422,
2012-06-23, 01:06:04,VALID,1002.03,VALID,0,VALID,92.2955,VALID,0,VALID,22.1015,VALID,42,VALID,0.455078,
2012-06-23, 01:07:04,VALID,1002.04,VALID,0,VALID,92.3794,VALID,0,VALID,22.1015,VALID,42,VALID,0.809766,
2012-06-23, 01:08:04,VALID,1002.02,VALID,0,VALID,92.471,VALID,0,VALID,22.1405,VALID,42,VALID,1.01211,
2012-06-23, 01:09:04,VALID,1001.99,VALID,0,VALID,92.4405,VALID,0,VALID,22.16,VALID,42,VALID,0.781641,
2012-06-23, 01:10:04,VALID,1002,VALID,0,VALID,92.471,VALID,0,VALID,22.1795,VALID,42,VALID,0.501172,
2012-06-23, 01:11:04,VALID,1001.97,VALID,0,VALID,92.4863,VALID,0,VALID,22.16,VALID,42,VALID,0.18125,
2012-06-23, 01:12:04,VALID,1001.97,VALID,0,VALID,92.5702,VALID,0,VALID,22.1405,VALID,42,VALID,0.24375,
2012-06-23, 01:13:04,VALID,1001.92,VALID,0,VALID,92.677,VALID,0,VALID,22.1405,VALID,42,VALID,0.481641,
2012-06-23, 01:14:04,VALID,1001.91,VALID,0,VALID,92.7685,VALID,0.104696,VALID,22.1405,VALID,42,VALID,0.258594,
2012-06-23, 01:15:04,VALID,1001.87,VALID,0,VALID,92.8372,VALID,0,VALID,22.0998,VALID,42,VALID,0.595703,
2012-06-23, 01:16:04,VALID,1001.86,VALID,0,VALID,92.9669,VALID,0,VALID,22.121,VALID,42,VALID,0.31875,
2012-06-23, 01:17:04,VALID,1001.82,VALID,0,VALID,93.0814,VALID,0,VALID,22.0998,VALID,42,VALID,0.375,
2012-06-23, 01:18:04,VALID,1001.81,VALID,0,VALID,93.234,VALID,0,VALID,22.121,VALID,42,VALID,0.721484,
2012-06-23, 01:19:04,VALID,1001.78,VALID,0,VALID,93.3331,VALID,0,VALID,22.1227,VALID,60,VALID,0.765625,
2012-06-23, 01:20:04,VALID,1001.76,VALID,0,VALID,93.3026,VALID,0,VALID,22.1422,VALID,61,VALID,0.586719,
2012-06-23, 01:21:04,VALID,1001.78,VALID,0,VALID,93.2111,VALID,0,VALID,22.1405,VALID,61,VALID,0.477344,
2012-06-23, 01:22:04,VALID,1001.71,VALID,0,VALID,92.9669,VALID,0,VALID,22.1812,VALID,61,VALID,0.648438,
2012-06-23, 01:23:04,VALID,1001.7,VALID,0,VALID,92.8372,VALID,0,VALID,22.2007,VALID,61,VALID,0.449609,
2012-06-23, 01:24:04,VALID,1001.67,VALID,0,VALID,92.7762,VALID,0,VALID,22.2202,VALID,61,VALID,0.378906,
2012-06-23, 01:25:04,VALID,1001.62,VALID,0,VALID,92.5244,VALID,0,VALID,22.2186,VALID,117,VALID,0.939844,
2012-06-23, 01:26:04,VALID,1001.6,VALID,0,VALID,91.2655,VALID,0,VALID,22.2966,VALID,120,VALID,1.16055,
2012-06-23, 01:27:04,VALID,1001.58,VALID,0,VALID,89.8159,VALID,0,VALID,22.4933,VALID,123,VALID,0.904688,
2012-06-23, 01:28:04,VALID,1001.56,VALID,0,VALID,88.5036,VALID,0,VALID,22.6299,VALID,121,VALID,1.05625,
2012-06-23, 01:29:04,VALID,1001.6,VALID,0,VALID,87.4583,VALID,0,VALID,22.7452,VALID,121,VALID,0.892187,
2012-06-23, 01:30:04,VALID,1001.6,VALID,0,VALID,86.848,VALID,0,VALID,22.864,VALID,121,VALID,0.79375,
2012-06-23, 01:31:04,VALID,1001.6,VALID,0,VALID,86.3215,VALID,0,VALID,22.9225,VALID,121,VALID,0.68125,
2012-06-23, 01:32:04,VALID,1001.58,VALID,0,VALID,85.9324,VALID,0,VALID,22.9811,VALID,111,VALID,0.741016,
2012-06-23, 01:33:04,VALID,1001.59,VALID,0,VALID,86.764,VALID,0,VALID,23.0006,VALID,35,VALID,0.772656,
2012-06-23, 01:34:04,VALID,1001.56,VALID,0,VALID,87.5194,VALID,0,VALID,22.9403,VALID,29,VALID,0.763281,
2012-06-23, 01:35:04,VALID,1001.56,VALID,0,VALID,87.9771,VALID,0,VALID,22.903,VALID,23,VALID,0.752734,
2012-06-23, 01:36:04,VALID,1001.51,VALID,0,VALID,88.5341,VALID,0,VALID,22.825,VALID,24,VALID,1.1707,
2012-06-23, 01:37:04,VALID,1001.5,VALID,0,VALID,88.7172,VALID,0,VALID,22.7452,VALID,27,VALID,1.09961,
2012-06-23, 01:38:04,VALID,1001.44,VALID,0,VALID,89.0682,VALID,0,VALID,22.7274,VALID,28,VALID,0.80625,
2012-06-23, 01:39:04,VALID,1001.41,VALID,0,VALID,89.1368,VALID,0,VALID,22.6689,VALID,29,VALID,0.734375,
2012-06-23, 01:40:04,VALID,1001.41,VALID,0,VALID,89.3123,VALID,0,VALID,22.5909,VALID,29,VALID,0.645703,
2012-06-23, 01:41:04,VALID,1001.35,VALID,0,VALID,89.8464,VALID,0,VALID,22.5128,VALID,29,VALID,0.428125,
2012-06-23, 01:42:04,VALID,1001.35,VALID,0,VALID,90.2355,VALID,0,VALID,22.4738,VALID,29,VALID,0.520703,
2012-06-23, 01:43:04,VALID,1001.32,VALID,0,VALID,90.4186,VALID,0,VALID,22.4348,VALID,29,VALID,0.725781,
2012-06-23, 01:44:04,VALID,1001.31,VALID,0,VALID,90.617,VALID,0,VALID,22.3763,VALID,28,VALID,0.931641,
2012-06-23, 01:45:04,VALID,1001.31,VALID,0,VALID,90.7772,VALID,0,VALID,22.2983,VALID,28,VALID,0.0535156,
2012-06-23, 01:46:04,VALID,1001.29,VALID,0,VALID,91.1587,VALID,0,VALID,22.2592,VALID,28,VALID,0.346094,
2012-06-23, 01:47:04,VALID,1001.28,VALID,0,VALID,91.4257,VALID,0,VALID,22.2592,VALID,28,VALID,0.807813,
2012-06-23, 01:48:04,VALID,1001.25,VALID,0,VALID,91.3952,VALID,0,VALID,22.2397,VALID,28,VALID,0.784375,
2012-06-23, 01:49:04,VALID,1001.23,VALID,0,VALID,91.3647,VALID,0.104696,VALID,22.2576,VALID,28,VALID,0.527734,
2012-06-23, 01:50:04,VALID,1001.21,VALID,0,VALID,91.441,VALID,0,VALID,22.2381,VALID,28,VALID,0.197266,
2012-06-23, 01:51:04,VALID,1001.17,VALID,0,VALID,91.5173,VALID,0,VALID,22.2381,VALID,28,VALID,0.462891,
2012-06-23, 01:52:04,VALID,1001.14,VALID,0,VALID,91.6394,VALID,0,VALID,22.2576,VALID,28,VALID,0.533594,
2012-06-23, 01:53:04,VALID,1001.12,VALID,0,VALID,91.502,VALID,0,VALID,22.2186,VALID,28,VALID,0.268359,
2012-06-23, 01:54:04,VALID,1001.13,VALID,0,VALID,91.5097,VALID,0,VALID,22.2186,VALID,28,VALID,0,
2012-06-23, 01:55:04,VALID,1001.13,VALID,0,VALID,91.6241,VALID,0,VALID,22.1795,VALID,28,VALID,0,
2012-06-23, 01:56:04,VALID,1001.12,VALID,0,VALID,91.7996,VALID,0,VALID,22.1795,VALID,28,VALID,0,
2012-06-23, 01:57:04,VALID,1001.13,VALID,0,VALID,91.9827,VALID,0,VALID,22.16,VALID,28,VALID,0.0390625,
2012-06-23, 01:58:04,VALID,1001.1,VALID,0,VALID,92.265,VALID,0,VALID,22.1795,VALID,28,VALID,0.354688,
2012-06-23, 01:59:04,VALID,1001.05,VALID,0,VALID,92.3566,VALID,0,VALID,22.199,VALID,28,VALID,0.427734,
2012-06-23, 02:00:04,VALID,1001.04,VALID,0,VALID,92.1734,VALID,0,VALID,22.2364,VALID,28,VALID,0.235156,
2012-06-23, 02:01:04,VALID,1001.06,VALID,0,VALID,91.853,VALID,0,VALID,22.2559,VALID,28,VALID,0,
2012-06-23, 02:02:04,VALID,1001.02,VALID,0,VALID,91.4563,VALID,0,VALID,22.2381,VALID,28,VALID,0.00078125,
2012-06-23, 02:03:04,VALID,1000.95,VALID,0,VALID,91.441,VALID,0,VALID,22.2186,VALID,28,VALID,0.0121094,
2012-06-23, 02:04:04,VALID,1000.95,VALID,0,VALID,91.3266,VALID,0,VALID,22.199,VALID,28,VALID,0.197266,
2012-06-23, 02:05:04,VALID,1000.92,VALID,0,VALID,91.2884,VALID,0,VALID,22.199,VALID,105,VALID,0.663672,
2012-06-23, 02:06:04,VALID,1000.9,VALID,0,VALID,90.8611,VALID,0,VALID,22.3161,VALID,140,VALID,1.0457,
2012-06-23, 02:07:04,VALID,1000.87,VALID,0,VALID,89.4726,VALID,0,VALID,22.5323,VALID,161,VALID,1.0707,
2012-06-23, 02:08:04,VALID,1000.86,VALID,0,VALID,88.0306,VALID,0,VALID,22.6672,VALID,155,VALID,1.04766,
2012-06-23, 02:09:04,VALID,1000.82,VALID,0,VALID,86.6191,VALID,0,VALID,22.8623,VALID,168,VALID,1.34766,
2012-06-23, 02:10:04,VALID,1000.81,VALID,0,VALID,84.6964,VALID,0,VALID,23.0964,VALID,160,VALID,1.21719,
2012-06-23, 02:11:04,VALID,1000.81,VALID,0,VALID,83.4452,VALID,0,VALID,23.2719,VALID,149,VALID,1.35625,
2012-06-23, 02:12:04,VALID,1000.8,VALID,0,VALID,82.5372,VALID,0,VALID,23.428,VALID,157,VALID,0.99375,
2012-06-23, 02:13:04,VALID,1000.79,VALID,0,VALID,81.9955,VALID,0,VALID,23.5079,VALID,157,VALID,0.816016,
2012-06-23, 02:14:04,VALID,1000.79,VALID,0,VALID,81.6598,VALID,0,VALID,23.5469,VALID,157,VALID,0.626953,
2012-06-23, 02:15:04,VALID,1000.83,VALID,0,VALID,81.7209,VALID,0,VALID,23.5469,VALID,157,VALID,0.191797,
2012-06-23, 02:16:04,VALID,1000.79,VALID,0,VALID,81.7361,VALID,0,VALID,23.4475,VALID,157,VALID,0.221094,
2012-06-23, 02:17:04,VALID,1000.8,VALID,0,VALID,83.346,VALID,0,VALID,23.2719,VALID,157,VALID,0.61875,
2012-06-23, 02:18:04,VALID,1000.79,VALID,0,VALID,85.0016,VALID,0,VALID,23.0751,VALID,157,VALID,0.659375,
2012-06-23, 02:19:04,VALID,1000.78,VALID,0,VALID,85.9324,VALID,0,VALID,22.9403,VALID,157,VALID,0.663281,
2012-06-23, 02:20:04,VALID,1000.81,VALID,0,VALID,86.6572,VALID,0,VALID,22.841,VALID,157,VALID,0.498047,
2012-06-23, 02:21:04,VALID,1000.78,VALID,0,VALID,87.2142,VALID,0,VALID,22.7647,VALID,157,VALID,0.519141,
2012-06-23, 02:22:04,VALID,1000.82,VALID,0,VALID,87.8398,VALID,0,VALID,22.7062,VALID,157,VALID,0.441797,
2012-06-23, 02:23:04,VALID,1000.81,VALID,0,VALID,88.29,VALID,0,VALID,22.6069,VALID,157,VALID,0.434766,
2012-06-23, 02:24:04,VALID,1000.77,VALID,0,VALID,88.8851,VALID,0,VALID,22.5094,VALID,157,VALID,0.353516,
2012-06-23, 02:25:04,VALID,1000.75,VALID,0,VALID,89.3276,VALID,0,VALID,22.4331,VALID,157,VALID,0.291016,
2012-06-23, 02:26:04,VALID,1000.73,VALID,0,VALID,89.8998,VALID,0,VALID,22.3551,VALID,157,VALID,0.315234,
2012-06-23, 02:27:04,VALID,1000.74,VALID,0,VALID,90.1668,VALID,0,VALID,22.3161,VALID,157,VALID,0.292969,
2012-06-23, 02:28:04,VALID,1000.73,VALID,0,VALID,90.1516,VALID,0,VALID,22.3161,VALID,157,VALID,0.188281,
2012-06-23, 02:29:04,VALID,1000.71,VALID,0,VALID,90.1134,VALID,0,VALID,22.2966,VALID,157,VALID,0,
2012-06-23, 02:30:04,VALID,1000.7,VALID,0,VALID,90.06,VALID,0,VALID,22.2966,VALID,157,VALID,0,
2012-06-23, 02:31:04,VALID,1000.69,VALID,0,VALID,90.2355,VALID,0,VALID,22.2771,VALID,157,VALID,0.120312,
2012-06-23, 02:32:04,VALID,1000.68,VALID,0,VALID,90.1821,VALID,0,VALID,22.2754,VALID,157,VALID,0.25,
2012-06-23, 02:33:04,VALID,1000.65,VALID,0,VALID,90.1516,VALID,0,VALID,22.2771,VALID,157,VALID,0.131641,
2012-06-23, 02:34:04,VALID,1000.65,VALID,0,VALID,90.0677,VALID,0,VALID,22.2381,VALID,157,VALID,0,
2012-06-23, 02:35:04,VALID,1000.63,VALID,0,VALID,90.1363,VALID,0,VALID,22.2186,VALID,157,VALID,0.194922,
2012-06-23, 02:36:04,VALID,1000.65,VALID,0,VALID,90.1821,VALID,0,VALID,22.2381,VALID,157,VALID,0.0636719,
2012-06-23, 02:37:04,VALID,1000.64,VALID,0,VALID,90.1974,VALID,0,VALID,22.2186,VALID,157,VALID,0.0792969,
2012-06-23, 02:38:04,VALID,1000.64,VALID,0,VALID,90.2966,VALID,0,VALID,22.2186,VALID,157,VALID,0.0859375,
2012-06-23, 02:39:04,VALID,1000.66,VALID,0,VALID,90.3423,VALID,0,VALID,22.199,VALID,157,VALID,0,
2012-06-23, 02:40:04,VALID,1000.67,VALID,0,VALID,90.4263,VALID,0,VALID,22.199,VALID,157,VALID,0.0394531,
2012-06-23, 02:41:04,VALID,1000.67,VALID,0,VALID,89.9074,VALID,0,VALID,22.16,VALID,157,VALID,0.452344,
2012-06-23, 02:42:04,VALID,1000.69,VALID,0,VALID,89.938,VALID,0,VALID,22.043,VALID,157,VALID,0.517187,
2012-06-23, 02:43:04,VALID,1000.66,VALID,0,VALID,90.6628,VALID,0,VALID,21.965,VALID,157,VALID,0.323047,
2012-06-23, 02:44:04,VALID,1000.68,VALID,0,VALID,91.4639,VALID,0,VALID,21.9455,VALID,157,VALID,0.310547,
2012-06-23, 02:45:04,VALID,1000.71,VALID,0,VALID,91.8072,VALID,0,VALID,21.9065,VALID,157,VALID,0.235156,
2012-06-23, 02:46:04,VALID,1000.7,VALID,0,VALID,92.0666,VALID,0,VALID,21.887,VALID,157,VALID,0.239063,
2012-06-23, 02:47:04,VALID,1000.68,VALID,0,VALID,92.2879,VALID,0,VALID,21.8658,VALID,157,VALID,0.192188,
2012-06-23, 02:48:04,VALID,1000.71,VALID,0,VALID,92.4557,VALID,0,VALID,21.8675,VALID,157,VALID,0.205859,
2012-06-23, 02:49:04,VALID,1000.73,VALID,0,VALID,92.6617,VALID,0,VALID,21.8692,VALID,157,VALID,0.461328,
2012-06-23, 02:50:04,VALID,1000.72,VALID,0,VALID,92.8067,VALID,0,VALID,21.8496,VALID,157,VALID,0.569922,
2012-06-23, 02:51:04,VALID,1000.77,VALID,0,VALID,92.3108,VALID,0,VALID,21.7716,VALID,60,VALID,0.877344,
2012-06-23, 02:52:04,VALID,1000.74,VALID,0,VALID,92.5626,VALID,0,VALID,21.7521,VALID,59,VALID,1.01523,
2012-06-23, 02:53:04,VALID,1000.75,VALID,0,VALID,92.0437,VALID,0,VALID,21.6725,VALID,47,VALID,1.11797,
2012-06-23, 02:54:04,VALID,1000.74,VALID,0,VALID,91.0443,VALID,0,VALID,21.5766,VALID,47,VALID,1.07227,
2012-06-23, 02:55:04,VALID,1000.74,VALID,0,VALID,91.0061,VALID,0,VALID,21.4596,VALID,47,VALID,1.14766,
2012-06-23, 02:56:04,VALID,1000.71,VALID,0,VALID,91.5554,VALID,0,VALID,21.3832,VALID,46,VALID,1.31562,
2012-06-23, 02:57:04,VALID,1000.68,VALID,0,VALID,92.0971,VALID,0,VALID,21.2825,VALID,43,VALID,0.980078,
2012-06-23, 02:58:04,VALID,1000.65,VALID,0,VALID,92.0361,VALID,0,VALID,21.2451,VALID,43,VALID,0.866016,
2012-06-23, 02:59:04,VALID,1000.64,VALID,0,VALID,91.9064,VALID,0,VALID,21.146,VALID,43,VALID,0.680859,
2012-06-23, 03:00:04,VALID,1000.6,VALID,0,VALID,91.9827,VALID,0,VALID,21.0696,VALID,43,VALID,0.223438,
2012-06-23, 03:01:04,VALID,1000.61,VALID,0,VALID,92.2116,VALID,0,VALID,21.0111,VALID,43,VALID,0.250781,
2012-06-23, 03:02:04,VALID,1000.62,VALID,0,VALID,92.532,VALID,0,VALID,20.9526,VALID,21,VALID,0.501562,
2012-06-23, 03:03:04,VALID,1000.59,VALID,0,VALID,92.8983,VALID,0,VALID,20.9136,VALID,23,VALID,0.887109,
2012-06-23, 03:04:04,VALID,1000.64,VALID,0,VALID,93.3942,VALID,0,VALID,20.8925,VALID,23,VALID,0.982031,
2012-06-23, 03:05:04,VALID,1000.65,VALID,0,VALID,93.6994,VALID,0,VALID,20.873,VALID,29,VALID,1.16797,
2012-06-23, 03:06:04,VALID,1000.65,VALID,0,VALID,93.8214,VALID,0,VALID,20.8145,VALID,29,VALID,0.892969,
2012-06-23, 03:07:04,VALID,1000.69,VALID,0,VALID,93.8748,VALID,0,VALID,20.756,VALID,29,VALID,0.94375,
2012-06-23, 03:08:04,VALID,1000.67,VALID,0,VALID,93.974,VALID,0,VALID,20.7171,VALID,29,VALID,0.880078,
2012-06-23, 03:09:04,VALID,1000.63,VALID,0,VALID,94.1343,VALID,0,VALID,20.6781,VALID,29,VALID,0.860937,
2012-06-23, 03:10:04,VALID,1000.62,VALID,0,VALID,94.325,VALID,0,VALID,20.6586,VALID,29,VALID,0.720703,
2012-06-23, 03:11:04,VALID,1000.58,VALID,0,VALID,94.4471,VALID,0,VALID,20.6391,VALID,29,VALID,0.594141,
2012-06-23, 03:12:04,VALID,1000.56,VALID,0,VALID,94.7446,VALID,0,VALID,20.6976,VALID,29,VALID,0.728125,
2012-06-23, 03:13:04,VALID,1000.55,VALID,0,VALID,95.0574,VALID,0,VALID,20.8145,VALID,29,VALID,0.697266,
2012-06-23, 03:14:04,VALID,1000.53,VALID,0,VALID,95.2405,VALID,0,VALID,20.912,VALID,29,VALID,0.427344,
2012-06-23, 03:15:04,VALID,1000.52,VALID,0,VALID,95.3092,VALID,0,VALID,20.873,VALID,29,VALID,0,
2012-06-23, 03:16:04,VALID,1000.55,VALID,0,VALID,95.2711,VALID,0,VALID,20.8145,VALID,29,VALID,0.621484,
2012-06-23, 03:17:04,VALID,1000.54,VALID,0,VALID,95.3168,VALID,0,VALID,20.873,VALID,38,VALID,0.937891,
2012-06-23, 03:18:04,VALID,1000.58,VALID,0,VALID,95.3703,VALID,0,VALID,20.912,VALID,42,VALID,0.953125,
2012-06-23, 03:19:04,VALID,1000.56,VALID,0,VALID,95.4008,VALID,0,VALID,20.951,VALID,42,VALID,0.997656,
2012-06-23, 03:20:04,VALID,1000.52,VALID,0,VALID,95.4618,VALID,0,VALID,20.9315,VALID,42,VALID,0.714844,
2012-06-23, 03:21:04,VALID,1000.54,VALID,0,VALID,95.4237,VALID,0,VALID,20.912,VALID,42,VALID,0.580859,
2012-06-23, 03:22:04,VALID,1000.55,VALID,0,VALID,95.3855,VALID,0,VALID,20.8925,VALID,42,VALID,0.199609,
2012-06-23, 03:23:04,VALID,1000.53,VALID,0,VALID,95.355,VALID,0,VALID,20.8535,VALID,42,VALID,0.278125,
2012-06-23, 03:24:04,VALID,1000.54,VALID,0,VALID,95.2558,VALID,0,VALID,20.7755,VALID,42,VALID,0.556641,
2012-06-23, 03:25:04,VALID,1000.54,VALID,0,VALID,95.2711,VALID,0,VALID,20.7545,VALID,42,VALID,0.749219,
2012-06-23, 03:26:04,VALID,1000.54,VALID,0,VALID,95.3016,VALID,0,VALID,20.7755,VALID,42,VALID,0.681641,
2012-06-23, 03:27:04,VALID,1000.55,VALID,0,VALID,95.4084,VALID,0,VALID,20.795,VALID,42,VALID,0.551562,
2012-06-23, 03:28:04,VALID,1000.55,VALID,0,VALID,95.4389,VALID,0,VALID,20.7755,VALID,42,VALID,0.445703,
2012-06-23, 03:29:04,VALID,1000.58,VALID,0,VALID,95.4847,VALID,0.104696,VALID,20.8145,VALID,42,VALID,0.391797,
2012-06-23, 03:30:04,VALID,1000.59,VALID,0,VALID,95.5228,VALID,0,VALID,20.8145,VALID,42,VALID,0.280078,
2012-06-23, 03:31:04,VALID,1000.6,VALID,0,VALID,95.5381,VALID,0.104696,VALID,20.8145,VALID,42,VALID,0.560938,
2012-06-23, 03:32:04,VALID,1000.6,VALID,0,VALID,95.5762,VALID,0,VALID,20.795,VALID,36,VALID,0.581641,
2012-06-23, 03:33:04,VALID,1000.63,VALID,0,VALID,95.5839,VALID,0,VALID,20.7755,VALID,21,VALID,0.633984,
2012-06-23, 03:34:04,VALID,1000.64,VALID,0,VALID,95.5839,VALID,0,VALID,20.7771,VALID,21,VALID,0.357812,
2012-06-23, 03:35:04,VALID,1000.68,VALID,0,VALID,95.5915,VALID,0,VALID,20.7771,VALID,21,VALID,0.441406,
2012-06-23, 03:36:04,VALID,1000.7,VALID,0,VALID,95.6373,VALID,0,VALID,20.7966,VALID,21,VALID,0.194141,
2012-06-23, 03:37:04,VALID,1000.71,VALID,0,VALID,95.6678,VALID,0,VALID,20.7755,VALID,21,VALID,0,
2012-06-23, 03:38:04,VALID,1000.72,VALID,0,VALID,95.6602,VALID,0,VALID,20.7771,VALID,21,VALID,0,
2012-06-23, 03:39:04,VALID,1000.75,VALID,0,VALID,95.6754,VALID,0,VALID,20.7381,VALID,21,VALID,0,
2012-06-23, 03:40:04,VALID,1000.75,VALID,0,VALID,95.6678,VALID,0,VALID,20.7381,VALID,21,VALID,0.424609,
2012-06-23, 03:41:04,VALID,1000.74,VALID,0,VALID,95.6754,VALID,0,VALID,20.7186,VALID,21,VALID,0.693359,
2012-06-23, 03:42:04,VALID,1000.77,VALID,0,VALID,95.6754,VALID,0,VALID,20.7202,VALID,21,VALID,0.735156,
2012-06-23, 03:43:04,VALID,1000.77,VALID,0,VALID,95.6907,VALID,0,VALID,20.6796,VALID,21,VALID,0.751953,
2012-06-23, 03:44:04,VALID,1000.79,VALID,0,VALID,95.7212,VALID,0,VALID,20.6796,VALID,21,VALID,0.746094,
2012-06-23, 03:45:04,VALID,1000.78,VALID,0,VALID,95.7517,VALID,0,VALID,20.6601,VALID,21,VALID,0.688281,
2012-06-23, 03:46:04,VALID,1000.8,VALID,0,VALID,95.7822,VALID,0,VALID,20.7186,VALID,21,VALID,0.971875,